Regional Weather Roundup
Issued by NWS Upton, NY

Current Version | Previous Version | Text Only | Print | Product List | Glossary Off
Versions: 1 2 3 4 5 6 7 8 9 10 11 12 13 14 15 16 17 18 19 20 21 22 23 24 25 26 27 28 29 30 31 32 33 34 35 36 37 38 39 40 41 42 43 44 45 46 47 48 49 50
998 ASUS41 KOKX 281004 RWROKX REGIONAL WEATHER ROUNDUP NATIONAL WEATHER SERVICE NEW YORK NY 600 AM EDT THU APR 28 2016 NOTE: "FAIR" INDICATES FEW OR NO CLOUDS BELOW 12,000 FEET WITH NO SIGNIFICANT WEATHER AND/OR OBSTRUCTIONS TO VISIBILITY. NYZ071-072-176-178-NJZ106-104-281100- NEW YORK CITY METRO AREA CITY SKY/WX TMP DP RH WIND PRES REMARKS CENTRAL PARK CLOUDY 48 22 35 VRB6 30.02R LAGUARDIA APRT MOCLDY 48 23 37 NE14 29.99R KENNEDY INTL MOCLDY 48 23 37 NE12 30.00R NEWARK/LIBERTY CLOUDY 47 33 58 N10 29.99R BRNX BOT. GARD N/A 45 23 42 E2 30.00F TETERBORO PTCLDY 47 27 45 N3 29.99R $$ NYZ177-179-078>081-281100- LONG ISLAND NEW YORK CITY SKY/WX TMP DP RH WIND PRES REMARKS FARMINGDALE PTCLDY 45 24 43 N8 30.00R ISLIP MOCLDY 45 25 45 N7 29.99R SHIRLEY CLOUDY 45 25 45 N5 30.00R RIVERHEAD N/A 45 30 57 NE3 30.00R WESTHAMPTON MOCLDY 32 30 92 N8 30.00R WCI 25 EAST HAMPTON FAIR 43 28 55 N5 29.98R MONTAUK POINT N/A 46 32 58 NE7 30.01R $$ NYZ052-065-067-281100- HUDSON VALLEY CITY SKY/WX TMP DP RH WIND PRES REMARKS WHITE PLAINS CLOUDY 43 18 36 N5 29.99R NEWBURGH CLEAR 39 25 56 E12 30.00R WCI 32 MONTGOMERY MOCLDY 35 30 82 CALM 30.00R POUGHKEEPSIE PTCLDY 36 27 69 CALM 30.01R ALBANY CLOUDY 36 20 52 N5 30.03R WCI 32 $$ NJZ001-105-106-008-010-013-015-019>022-104-281100- NEW JERSEY CITY SKY/WX TMP DP RH WIND PRES REMARKS NEWARK/LIBERTY CLOUDY 47 33 58 N10 29.99R TETERBORO PTCLDY 47 27 45 N3 29.99R CALDWELL PTCLDY 46 33 60 NE3 30.00R MORRISTOWN MOCLDY 43 32 65 NE5 29.99R SOMERVILLE PTCLDY 39 37 92 CALM 29.97R FOG SUSSEX PTCLDY 35 29 78 CALM 30.01R ANDOVER N/A 42 31 64 CALM 29.99R TRENTON PTCLDY 44 41 89 N5 29.98R MILLVILLE CLOUDY 49 45 86 W3 29.98R ATLANTIC CITY MOCLDY 43 41 93 CALM 29.97R WRIGHTSTOWN NOT AVBL TOMS RIVER CLOUDY 37 34 87 CALM 29.99R BELMAR CLOUDY 46 43 87 NE6 29.99R $$ PAZ047>061-062-071-281100- EASTERN PENNSYLVANIA CITY SKY/WX TMP DP RH WIND PRES REMARKS PHILADELPHIA CLOUDY 51 44 77 NE3 29.99R FOG ALLENTOWN MOCLDY 46 33 60 CALM 29.98R SCRANTON CLOUDY 40 24 53 E3 30.00R $$ CTZ002-004>006-009-010-012-RIZ004-006-007-MAZ004-011-015-281100- SOUTHERN NEW ENGLAND IN CT CITY SKY/WX TMP DP RH WIND PRES REMARKS BRADLEY INTL PTCLDY 36 21 54 CALM 30.00R HARTFORD CLEAR 38 28 67 CALM 30.02R DANBURY PTCLDY 42 18 37 NE5 30.01R WTRBRY/OXFORD N/A 36 18 48 N8 30.02R WCI 29 BRIDGEPORT CLOUDY 45 19 35 N7 30.01R MERIDEN CLOUDY 34 29 82 CALM 30.01R NEW HAVEN CLOUDY 41 21 44 CALM 30.00R CHESTER FAIR 43 18 36 N6 30.00R GROTON CLEAR 42 29 59 CALM 30.01R WILLIMANTIC CLEAR 34 30 85 CALM 30.01R IN RI CITY SKY/WX TMP DP RH WIND PRES REMARKS PROVIDENCE PTCLDY 40 20 44 N7 30.00R BLOCK ISLAND CLEAR 45 32 60 NE12 30.01R WESTERLY CLEAR 36 30 79 CALM 30.01R IN MA CITY SKY/WX TMP DP RH WIND PRES REMARKS BOSTON PTCLDY 41 13 31 NW7 30.01 WORCESTER CLEAR 36 15 42 NW5 29.98R WCI 32 WESTFIELD PTCLDY 32 22 66 N3 30.01R PROVINCETOWN CLEAR 42 28 57 N7 30.00R NANTUCKET CLEAR 42 30 62 NE10 29.98R $$ ANZ330-335-338-340-345-350-353-355-281100- COASTAL MARINE OBSERVATIONS STATION/POSITION TIME SKY/WX TEMP WIND PRES VSBY WAVE AIR SEA DIR/SP/G HT/PER (UTC) (F) (DEG/KT/KT) (MB) (MI) (FT/S) NY HARB ENTRANCE 0850 52 52 40/ 14/ 16 1014.3 2/ 7 20S FIRE ISLAND 0850 51 49 30/ 12/ 16 1014.2 3/ 7 GREAT SOUTH BAY 0930 49 58 360/ 8/ 10 N/A 23 SSW MONTAUK P 0950 48 47 350/ 12/ 14 1014.7 3/ 8 15 E BARNEGAT LI 0922 51 N/A 3/ 7 HUDSON CANYON 0850 49 49 1014.0 3/ 7 KINGS POINT 0900 49 53 1014.8 EXECUTION ROCKS NOT AVBL CENTRAL LI SOUND 0900 48 10/ 10/ 14 N/A 1 EASTERN LI SOUND 0900 47 47 10/ 8/ 12 N/A ROBBINS REEF 0900 52 50/ 8/ 9 1014.2 $$ >>>>>>>>>>>>>>>>>>>>>>>>>>>> KEY <<<<<<<<<<<<<<<<<<<<<<<<<<< > < > SKY/WX - SKY CONDITION/PRESENT WEATHER < > TMP - TEMPERATURE IN FAHRENHEIT < > DP - DEWPOINT IN FAHRENHEIT < > RH - RELATIVE HUMIDITY IN PERCENT < > WIND - DIRECTION AND SPEED IN MPH < > PRES - MEAN SEA LEVEL PRESSURE IN INCHES OF HG < > WCI - WIND CHILL INDEX < > VSB - VISIBILITY IN MILES < > HX - HEAT INDEX < > TC - TEMPERATURE IN CELSIUS < > VRB - VARIABLE WIND DIRECTION < > < >>>>>>>>>>>>>>>>>>>>>>>>>>>> KEY <<<<<<<<<<<<<<<<<<<<<<<<<<<

USA.gov is the U.S. government's official web portal to all federal, state and local government web resources and services.